SCP
0 0 0 0 0 0 0 0 0 0 0 0 0 0 0 0 0 0 0 0 0 0 0 0 0 0 0 0 0 0 0 0 0 0 0 0 0 0 0 0 0 0 0
0 0 0 0 0 0 0 0 0 0 0 0 0 0 0 0 0 0 0 0 0 0 0 0 0 0 1 0 0 0 0 0 0 0 0 0 0 0 0 0 0 0 0
0 0 0 0 0 0 0 0 0 0 0 0 0 0 0 0 0 0 0 0 0 0 0 0 0 0 0 0 0 0 0 0 0 0 0 0 0 0 0 0 0 0 0
0 0 0 0 0 0 0 0 0 0 0 0 0 0 0 0 0 0 0 0 0 0 0 0 0 0 1 0 0 0 0 0 0 0 0 0 0 0 0 0 0 0 0
0 0 0 0 0 0 0 0 0 0 0 0 0 0 0 0 0 0 0 0 0 0 0 0 0 0 1 1 0 0 0 0 0 0 0 0 0 0 0 0 0 0 0
0 0 0 0 0 0 0 0 0 0 0 0 0 0 0 0 0 0 0 0 0 0 0 0 0 0 0 1 1 1 0 0 0 0 0 0 0 0 0 0 0 0 0
0 0 0 0 0 0 0 0 0 0 0 0 0 0 0 0 0 0 0 0 0 0 0 0 0 0 0 0 1 1 1 0 0 0 0 0 0 0 0 0 0 0 0
0 0 0 0 0 0 0 0 0 0 0 0 0 0 0 0 0 0 0 0 0 0 0 0 0 0 0 0 0 1 1 0 0 0 0 0 0 0 0 0 0 0 0
0 0 0 0 0 0 0 0 0 0 0 0 0 0 0 0 0 0 0 0 0 0 0 0 0 0 -0 0 0 0 0 0 0 0 0 0 0 0 0 0 0 0 0
0 0 0 0 0 0 0 0 -0 -0 -0 -0 -0 0 0 0 0 0 0 0 0 0 0 0 0 0 0 0 0 0 0 0 0 0 0 0 0 0 0 0 0 0 0
0 0 0 0 0 0 0 -0 -0 -0 -0 -0 -0 0 0 0 0 0 0 0 0 0 0 0 0 0 0 0 0 -0 0 0 0 0 0 0 0 0 0 -0 0 0 0
0 0 0 0 0 0 0 0 0 -0 -0 -0 -0 0 0 0 0 0 0 0 0 0 0 0 0 0 0 0 0 0 0 0 0 0 0 0 0 0 0 0 0 0 0
0 0 0 0 0 0 0 0 0 -0 -0 -0 0 0 0 0 0 0 0 0 0 0 0 0 0 0 0 0 0 0 0 0 0 0 0 0 0 0 0 0 0 0 0
0 0 0 0 0 0 0 0 0 -0 -0 -0 -0 0 0 0 0 0 0 0 0 0 0 0 0 0 0 0 0 0 0 0 0 0 0 0 0 0 0 0 0 0 0
0 0 0 0 0 0 0 0 -0 -0 -0 -0 0 0 0 0 0 0 0 0 0 0 0 0 0 0 0 0 0 0 0 0 0 0 0 0 0 0 0 0 0 0 0
0 0 0 0 0 0 0 0 0 0 -0 -0 -0 0 0 0 0 0 0 0 0 0 0 0 0 0 0 0 0 0 0 0 0 0 0 0 0 0 0 0 0 0 0
0 0 0 0 0 0 0 0 0 0 0 0 -0 -0 0 0 0 0 0 0 0 0 0 0 0 0 0 0 0 0 0 0 0 0 0 0 0 0 0 0 0 0 0
0 0 0 0 0 0 0 0 0 0 0 0 0 0 0 0 0 0 0 0 0 0 0 0 0 0 0 0 0 0 0 0 0 0 0 0 0 0 0 0 0 0 0
0 0 0 0 0 0 0 0 0 0 0 0 0 0 0 0 0 0 0 0 0 0 0 0 0 0 0 0 0 0 0 0 0 0 0 0 0 0 0 0 0 0 0
0 0 0 0 0 0 0 0 0 0 0 0 0 0 0 0 0 0 0 0 0 0 0 0 0 -0 0 0 0 0 0 0 0 0 0 -0 0 0 0 0 0 0 0
0 0 0 0 0 0 0 0 0 0 0 0 0 0 0 0 0 0 0 0 0 0 0 0 0 0 0 0 0 0 0 0 0 0 0 0 0 0 0 0 0 0 0
0 0 0 0 0 0 0 0 0 0 0 0 0 0 0 0 0 0 0 0 0 0 0 0 -0 0 0 0 -0 -0 -0 -0 0 0 0 0 0 0 0 0 0 0 0
0 0 0 0 0 0 0 0 0 0 0 0 0 0 0 0 0 0 0 0 0 0 0 0 0 0 0 0 -0 -0 -0 -0 0 0 0 0 0 0 0 0 0 0 0
0 0 0 0 0 0 0 0 0 0 0 0 0 0 0 0 0 0 0 0 0 0 0 -0 0 0 -0 -0 -0 0 0 0 0 0 0 0 0 0 0 0 0 0 0
0 -0 0 0 0 0 0 0 0 0 0 0 0 0 0 0 0 0 0 0 0 0 -0 -0 -0 -0 0 0 -0 0 0 0 0 0 0 0 0 0 0 0 0 0 0
0 0 0 0 0 0 0 0 0 0 0 0 0 0 0 0 0 0 0 0 -0 -0 -0 -0 -0 -0 -0 -0 0 0 0 0 0 0 0 0 0 0 0 0 0 0 0
Wind_Speed_500mb
47 62 71 80 84 73 77 79 81 73 60 69 73 71 67 51 54 57 66 69 62 56 57 58 53 48 46 51 78 77 90 62 81 75 71 70 76 75 73 72 71 71 69
62 65 79 85 75 73 72 74 73 62 55 61 61 60 71 70 58 56 51 54 56 53 52 54 55 51 49 56 55 76 84 98 80 75 73 45 60 62 68 68 69 71 68
57 72 77 71 71 71 72 67 63 64 56 54 56 58 57 65 71 61 58 45 55 48 47 48 54 51 48 59 61 70 79 85 89 95 61 21 24 48 66 70 69 67 67
60 71 71 74 70 69 67 61 51 52 57 48 52 53 55 63 67 57 58 41 40 47 45 43 51 64 59 55 59 77 79 86 73 92 87 68 45 32 20 66 76 73 71
63 71 67 68 67 64 61 54 52 53 49 48 46 49 57 65 63 56 51 48 49 47 45 40 44 52 65 69 65 65 70 70 80 92 92 84 77 59 53 35 50 72 74
63 60 61 65 66 61 55 53 50 48 46 44 44 47 45 49 56 48 46 33 42 43 43 46 44 47 57 63 71 77 78 75 88 95 91 91 90 75 63 47 49 54 45
59 64 69 67 66 61 55 52 50 50 43 41 40 33 22 37 42 40 37 42 43 36 41 40 43 34 49 58 59 77 81 80 90 96 95 93 94 79 83 69 68 52 64
61 66 69 69 65 58 54 52 52 46 37 36 37 30 13 11 33 37 35 38 34 36 33 39 43 52 33 56 63 61 73 78 80 92 67 93 92 93 81 75 74 63 70
59 63 68 69 62 59 54 51 46 44 34 30 34 28 17 8 19 29 34 34 30 25 33 38 40 51 61 49 50 58 68 70 87 84 66 90 93 87 71 62 53 67 26
55 66 67 65 60 55 52 44 44 41 35 28 27 26 22 19 20 31 31 32 31 29 28 30 37 33 48 65 59 51 79 77 86 81 76 92 93 77 68 62 64 69 64
54 61 68 63 60 54 48 43 40 37 36 28 23 19 21 24 30 31 28 26 24 29 27 27 31 33 40 52 59 53 75 85 85 88 79 72 68 68 66 68 66 69 51
52 58 63 62 61 57 50 44 40 38 34 28 20 17 19 25 26 25 26 26 22 22 22 23 30 30 41 44 46 51 73 68 65 73 59 58 65 66 64 70 72 57 50
50 55 58 62 60 60 54 48 42 38 34 27 20 16 14 14 15 15 15 17 22 21 19 26 28 27 36 37 38 39 57 74 77 57 59 55 53 57 70 68 54 53 44
39 48 54 59 57 58 55 49 42 35 32 28 22 16 10 9 10 11 12 12 12 20 18 17 28 26 29 35 32 38 51 60 61 51 33 25 41 45 48 38 36 35 35
38 43 47 52 55 58 58 50 42 36 33 28 23 18 9 6 9 12 15 12 8 11 14 15 22 25 33 35 36 39 51 54 56 46 41 32 33 33 22 21 21 20 20
33 39 39 43 48 51 55 52 41 35 32 28 26 19 11 7 5 5 6 7 10 10 10 13 14 11 24 37 48 41 58 50 47 50 47 43 36 34 23 22 19 18 14
28 35 35 41 41 44 48 51 43 34 31 30 27 22 16 9 8 9 13 12 10 16 19 17 12 19 24 43 57 54 69 66 63 56 53 47 38 34 30 27 22 24 25
20 28 31 32 34 35 41 46 46 43 38 36 33 30 27 24 21 20 21 25 28 33 37 40 40 43 48 52 60 63 68 70 66 65 54 48 45 38 31 29 29 31 33
18 26 32 31 28 26 31 41 47 49 48 45 43 42 39 36 34 37 38 40 45 50 53 58 62 60 59 53 49 57 66 71 70 63 55 46 45 43 33 26 28 28 29
12 21 27 29 26 24 22 27 37 48 51 50 47 43 46 50 53 54 55 56 58 63 63 69 65 62 57 43 43 48 55 61 61 53 51 44 39 36 32 23 24 22 27
10 18 24 27 27 23 20 21 25 35 40 41 43 44 49 51 51 53 56 59 61 61 59 59 57 53 47 40 35 34 37 40 42 41 39 37 28 25 23 18 16 12 14
8 16 21 26 25 23 19 19 19 25 29 28 34 38 39 40 41 44 42 43 45 49 50 47 46 44 44 37 29 27 30 27 25 29 27 24 17 10 7 5 6 5 5
8 11 16 21 21 20 19 17 17 18 21 20 21 24 26 27 29 31 35 35 35 38 39 37 36 34 30 26 20 18 19 18 17 16 11 7 4 1 3 5 6 6 9
10 8 12 13 16 16 17 17 18 17 15 16 17 18 20 22 23 25 28 30 31 31 32 31 30 28 25 23 20 18 18 17 15 14 12 10 7 6 6 5 4 4 9
15 8 8 10 11 13 15 17 18 19 16 14 17 23 24 24 25 31 34 33 33 28 27 30 26 22 20 19 17 13 12 12 10 10 9 6 5 6 3 4 3 5 5
18 13 8 4 5 10 14 16 17 19 18 16 17 20 22 24 25 27 28 31 32 32 32 29 25 25 23 20 18 16 12 10 11 10 9 8 8 7 6 4 5 5 4
Wind_Direction_500mb
317 312 309 313 315 309 305 305 306 307 301 291 288 279 273 269 269 259 253 251 253 255 254 250 244 247 240 239 232 229 220 223 220 220 224 227 232 236 239 238 235 235 236
319 317 316 315 309 306 303 304 306 307 297 293 296 290 273 267 263 253 249 248 255 254 255 245 241 238 243 241 245 225 220 220 225 233 227 211 226 235 233 233 234 235 238
320 318 318 313 311 309 308 306 298 298 298 299 298 293 285 269 262 256 243 245 245 249 248 246 232 231 232 236 230 221 217 218 224 220 202 165 207 229 234 232 232 235 235
319 322 321 320 318 315 312 308 304 304 299 299 291 286 279 275 254 260 248 251 242 246 254 249 235 231 231 229 231 229 227 212 207 200 218 229 221 209 245 241 238 236 236
324 325 324 322 321 320 318 309 303 299 296 296 285 279 283 274 259 259 245 240 240 251 245 241 241 235 233 232 231 228 223 222 216 211 207 218 225 224 220 237 237 235 239
329 328 328 331 327 323 319 315 310 306 302 298 285 272 305 260 249 248 237 248 235 236 237 250 243 241 238 233 231 235 235 231 223 218 221 217 211 208 213 222 244 231 226
334 338 339 335 332 328 324 318 314 309 304 300 288 281 325 250 252 227 242 247 233 232 241 241 237 241 230 237 236 234 232 224 213 215 219 220 222 229 226 237 235 231 242
347 346 343 340 336 330 327 319 316 313 307 305 295 296 310 220 238 239 232 223 225 234 242 241 246 236 236 232 230 227 229 228 224 222 216 231 242 230 228 233 236 241 237
351 350 347 345 338 333 326 321 319 315 311 309 313 313 302 236 204 205 208 212 214 221 238 246 251 246 232 235 239 236 232 222 224 211 227 230 234 223 223 237 239 233 226
354 355 350 347 344 335 329 325 320 314 313 311 315 319 315 273 242 223 220 217 226 229 237 249 253 265 248 235 237 259 228 222 211 215 216 219 218 219 240 238 237 244 248
351 349 349 349 349 345 341 332 326 321 314 306 307 304 295 279 270 253 247 237 244 249 246 252 261 274 268 249 243 264 221 214 210 210 209 224 232 229 241 242 249 254 246
352 347 348 350 352 352 350 345 338 332 327 316 315 304 281 268 269 267 255 246 245 244 254 251 255 268 265 249 242 269 208 208 211 216 214 216 231 238 246 244 245 244 248
354 344 349 352 355 358 357 354 351 345 340 333 324 307 294 279 266 267 264 257 243 240 234 247 254 265 256 241 238 256 228 211 211 204 212 216 236 242 242 239 239 229 227
357 345 349 353 357 1 2 0 358 356 352 348 334 322 296 270 261 253 255 258 266 236 239 253 258 264 263 232 228 246 199 191 192 191 189 214 211 212 211 216 210 226 234
354 350 351 349 1 3 6 7 5 4 2 3 356 345 332 281 234 225 232 230 245 240 231 262 252 250 265 222 223 237 190 180 177 175 188 182 184 183 177 187 199 207 208
354 352 353 349 4 6 12 15 11 16 17 18 19 10 354 338 254 215 232 186 188 233 213 222 236 237 252 188 214 214 162 162 161 152 146 145 147 149 149 148 154 165 163
355 352 357 357 3 14 16 24 23 28 35 42 48 48 44 51 90 116 127 133 159 161 151 150 161 157 164 163 161 156 136 141 130 133 130 132 126 124 129 127 132 129 124
357 348 4 13 6 15 26 32 33 42 49 58 64 72 79 89 101 116 124 131 138 136 126 125 128 126 125 137 133 129 126 121 121 120 119 123 117 108 111 118 124 123 125
359 352 6 14 13 16 22 36 43 48 54 61 72 80 89 94 100 105 111 116 122 117 111 109 110 104 94 98 108 120 119 114 112 113 116 117 117 112 109 116 116 118 122
2 358 7 15 20 23 30 39 45 54 56 61 70 82 89 98 102 106 108 108 107 104 103 99 96 97 99 112 123 117 110 112 112 112 113 109 111 111 109 111 107 122 122
347 1 7 18 28 32 32 44 52 59 64 67 71 77 86 90 92 96 98 98 98 97 97 102 101 101 106 102 97 98 98 95 103 104 109 114 116 117 117 117 118 119 122
326 358 6 15 25 33 40 47 55 67 73 73 79 79 77 84 93 93 94 95 98 101 100 99 101 102 101 101 98 86 80 87 94 95 95 99 100 102 109 128 133 148 185
282 341 360 9 21 32 41 52 61 68 75 81 78 79 83 82 83 89 97 99 98 96 97 96 93 88 84 88 86 86 80 81 80 92 86 86 79 3 283 257 253 260 249
257 310 339 6 14 30 45 52 64 68 64 63 66 75 80 84 88 86 87 87 83 84 88 87 84 81 82 82 82 75 72 72 60 47 43 41 56 62 43 16 5 291 257
243 268 313 343 14 36 46 53 59 64 74 81 86 96 93 88 89 90 86 85 85 84 85 84 78 76 77 73 67 63 56 48 37 41 49 72 49 27 15 353 312 267 275
231 239 246 269 2 29 42 46 52 59 62 60 64 68 74 85 84 79 79 73 68 65 65 68 64 60 60 58 57 51 43 20 2 4 3 9 28 23 28 13 340 316 287
Wind_Speed_850mb
47 62 71 80 84 73 77 79 81 73 60 69 73 71 67 51 54 57 66 69 62 56 57 58 53 48 46 51 78 77 90 62 81 75 71 70 76 75 73 72 71 71 69
62 65 79 85 75 73 72 74 73 62 55 61 61 60 71 70 58 56 51 54 56 53 52 54 55 51 49 56 55 76 84 98 80 75 73 45 60 62 68 68 69 71 68
57 72 77 71 71 71 72 67 63 64 56 54 56 58 57 65 71 61 58 45 55 48 47 48 54 51 48 59 61 70 79 85 89 95 61 21 24 48 66 70 69 67 67
60 71 71 74 70 69 67 61 51 52 57 48 52 53 55 63 67 57 58 41 40 47 45 43 51 64 59 55 59 77 79 86 73 92 87 68 45 32 20 66 76 73 71
63 71 67 68 67 64 61 54 52 53 49 48 46 49 57 65 63 56 51 48 49 47 45 40 44 52 65 69 65 65 70 70 80 92 92 84 77 59 53 35 50 72 74
63 60 61 65 66 61 55 53 50 48 46 44 44 47 45 49 56 48 46 33 42 43 43 46 44 47 57 63 71 77 78 75 88 95 91 91 90 75 63 47 49 54 45
59 64 69 67 66 61 55 52 50 50 43 41 40 33 22 37 42 40 37 42 43 36 41 40 43 34 49 58 59 77 81 80 90 96 95 93 94 79 83 69 68 52 64
61 66 69 69 65 58 54 52 52 46 37 36 37 30 13 11 33 37 35 38 34 36 33 39 43 52 33 56 63 61 73 78 80 92 67 93 92 93 81 75 74 63 70
59 63 68 69 62 59 54 51 46 44 34 30 34 28 17 8 19 29 34 34 30 25 33 38 40 51 61 49 50 58 68 70 87 84 66 90 93 87 71 62 53 67 26
55 66 67 65 60 55 52 44 44 41 35 28 27 26 22 19 20 31 31 32 31 29 28 30 37 33 48 65 59 51 79 77 86 81 76 92 93 77 68 62 64 69 64
54 61 68 63 60 54 48 43 40 37 36 28 23 19 21 24 30 31 28 26 24 29 27 27 31 33 40 52 59 53 75 85 85 88 79 72 68 68 66 68 66 69 51
52 58 63 62 61 57 50 44 40 38 34 28 20 17 19 25 26 25 26 26 22 22 22 23 30 30 41 44 46 51 73 68 65 73 59 58 65 66 64 70 72 57 50
50 55 58 62 60 60 54 48 42 38 34 27 20 16 14 14 15 15 15 17 22 21 19 26 28 27 36 37 38 39 57 74 77 57 59 55 53 57 70 68 54 53 44
39 48 54 59 57 58 55 49 42 35 32 28 22 16 10 9 10 11 12 12 12 20 18 17 28 26 29 35 32 38 51 60 61 51 33 25 41 45 48 38 36 35 35
38 43 47 52 55 58 58 50 42 36 33 28 23 18 9 6 9 12 15 12 8 11 14 15 22 25 33 35 36 39 51 54 56 46 41 32 33 33 22 21 21 20 20
33 39 39 43 48 51 55 52 41 35 32 28 26 19 11 7 5 5 6 7 10 10 10 13 14 11 24 37 48 41 58 50 47 50 47 43 36 34 23 22 19 18 14
28 35 35 41 41 44 48 51 43 34 31 30 27 22 16 9 8 9 13 12 10 16 19 17 12 19 24 43 57 54 69 66 63 56 53 47 38 34 30 27 22 24 25
20 28 31 32 34 35 41 46 46 43 38 36 33 30 27 24 21 20 21 25 28 33 37 40 40 43 48 52 60 63 68 70 66 65 54 48 45 38 31 29 29 31 33
18 26 32 31 28 26 31 41 47 49 48 45 43 42 39 36 34 37 38 40 45 50 53 58 62 60 59 53 49 57 66 71 70 63 55 46 45 43 33 26 28 28 29
12 21 27 29 26 24 22 27 37 48 51 50 47 43 46 50 53 54 55 56 58 63 63 69 65 62 57 43 43 48 55 61 61 53 51 44 39 36 32 23 24 22 27
10 18 24 27 27 23 20 21 25 35 40 41 43 44 49 51 51 53 56 59 61 61 59 59 57 53 47 40 35 34 37 40 42 41 39 37 28 25 23 18 16 12 14
8 16 21 26 25 23 19 19 19 25 29 28 34 38 39 40 41 44 42 43 45 49 50 47 46 44 44 37 29 27 30 27 25 29 27 24 17 10 7 5 6 5 5
8 11 16 21 21 20 19 17 17 18 21 20 21 24 26 27 29 31 35 35 35 38 39 37 36 34 30 26 20 18 19 18 17 16 11 7 4 1 3 5 6 6 9
10 8 12 13 16 16 17 17 18 17 15 16 17 18 20 22 23 25 28 30 31 31 32 31 30 28 25 23 20 18 18 17 15 14 12 10 7 6 6 5 4 4 9
15 8 8 10 11 13 15 17 18 19 16 14 17 23 24 24 25 31 34 33 33 28 27 30 26 22 20 19 17 13 12 12 10 10 9 6 5 6 3 4 3 5 5
18 13 8 4 5 10 14 16 17 19 18 16 17 20 22 24 25 27 28 31 32 32 32 29 25 25 23 20 18 16 12 10 11 10 9 8 8 7 6 4 5 5 4
Wind_Direction_850mb
317 312 309 313 315 309 305 305 306 307 301 291 288 279 273 269 269 259 253 251 253 255 254 250 244 247 240 239 232 229 220 223 220 220 224 227 232 236 239 238 235 235 236
319 317 316 315 309 306 303 304 306 307 297 293 296 290 273 267 263 253 249 248 255 254 255 245 241 238 243 241 245 225 220 220 225 233 227 211 226 235 233 233 234 235 238
320 318 318 313 311 309 308 306 298 298 298 299 298 293 285 269 262 256 243 245 245 249 248 246 232 231 232 236 230 221 217 218 224 220 202 165 207 229 234 232 232 235 235
319 322 321 320 318 315 312 308 304 304 299 299 291 286 279 275 254 260 248 251 242 246 254 249 235 231 231 229 231 229 227 212 207 200 218 229 221 209 245 241 238 236 236
324 325 324 322 321 320 318 309 303 299 296 296 285 279 283 274 259 259 245 240 240 251 245 241 241 235 233 232 231 228 223 222 216 211 207 218 225 224 220 237 237 235 239
329 328 328 331 327 323 319 315 310 306 302 298 285 272 305 260 249 248 237 248 235 236 237 250 243 241 238 233 231 235 235 231 223 218 221 217 211 208 213 222 244 231 226
334 338 339 335 332 328 324 318 314 309 304 300 288 281 325 250 252 227 242 247 233 232 241 241 237 241 230 237 236 234 232 224 213 215 219 220 222 229 226 237 235 231 242
347 346 343 340 336 330 327 319 316 313 307 305 295 296 310 220 238 239 232 223 225 234 242 241 246 236 236 232 230 227 229 228 224 222 216 231 242 230 228 233 236 241 237
351 350 347 345 338 333 326 321 319 315 311 309 313 313 302 236 204 205 208 212 214 221 238 246 251 246 232 235 239 236 232 222 224 211 227 230 234 223 223 237 239 233 226
354 355 350 347 344 335 329 325 320 314 313 311 315 319 315 273 242 223 220 217 226 229 237 249 253 265 248 235 237 259 228 222 211 215 216 219 218 219 240 238 237 244 248
351 349 349 349 349 345 341 332 326 321 314 306 307 304 295 279 270 253 247 237 244 249 246 252 261 274 268 249 243 264 221 214 210 210 209 224 232 229 241 242 249 254 246
352 347 348 350 352 352 350 345 338 332 327 316 315 304 281 268 269 267 255 246 245 244 254 251 255 268 265 249 242 269 208 208 211 216 214 216 231 238 246 244 245 244 248
354 344 349 352 355 358 357 354 351 345 340 333 324 307 294 279 266 267 264 257 243 240 234 247 254 265 256 241 238 256 228 211 211 204 212 216 236 242 242 239 239 229 227
357 345 349 353 357 1 2 0 358 356 352 348 334 322 296 270 261 253 255 258 266 236 239 253 258 264 263 232 228 246 199 191 192 191 189 214 211 212 211 216 210 226 234
354 350 351 349 1 3 6 7 5 4 2 3 356 345 332 281 234 225 232 230 245 240 231 262 252 250 265 222 223 237 190 180 177 175 188 182 184 183 177 187 199 207 208
354 352 353 349 4 6 12 15 11 16 17 18 19 10 354 338 254 215 232 186 188 233 213 222 236 237 252 188 214 214 162 162 161 152 146 145 147 149 149 148 154 165 163
355 352 357 357 3 14 16 24 23 28 35 42 48 48 44 51 90 116 127 133 159 161 151 150 161 157 164 163 161 156 136 141 130 133 130 132 126 124 129 127 132 129 124
357 348 4 13 6 15 26 32 33 42 49 58 64 72 79 89 101 116 124 131 138 136 126 125 128 126 125 137 133 129 126 121 121 120 119 123 117 108 111 118 124 123 125
359 352 6 14 13 16 22 36 43 48 54 61 72 80 89 94 100 105 111 116 122 117 111 109 110 104 94 98 108 120 119 114 112 113 116 117 117 112 109 116 116 118 122
2 358 7 15 20 23 30 39 45 54 56 61 70 82 89 98 102 106 108 108 107 104 103 99 96 97 99 112 123 117 110 112 112 112 113 109 111 111 109 111 107 122 122
347 1 7 18 28 32 32 44 52 59 64 67 71 77 86 90 92 96 98 98 98 97 97 102 101 101 106 102 97 98 98 95 103 104 109 114 116 117 117 117 118 119 122
326 358 6 15 25 33 40 47 55 67 73 73 79 79 77 84 93 93 94 95 98 101 100 99 101 102 101 101 98 86 80 87 94 95 95 99 100 102 109 128 133 148 185
282 341 360 9 21 32 41 52 61 68 75 81 78 79 83 82 83 89 97 99 98 96 97 96 93 88 84 88 86 86 80 81 80 92 86 86 79 3 283 257 253 260 249
257 310 339 6 14 30 45 52 64 68 64 63 66 75 80 84 88 86 87 87 83 84 88 87 84 81 82 82 82 75 72 72 60 47 43 41 56 62 43 16 5 291 257
243 268 313 343 14 36 46 53 59 64 74 81 86 96 93 88 89 90 86 85 85 84 85 84 78 76 77 73 67 63 56 48 37 41 49 72 49 27 15 353 312 267 275
231 239 246 269 2 29 42 46 52 59 62 60 64 68 74 85 84 79 79 73 68 65 65 68 64 60 60 58 57 51 43 20 2 4 3 9 28 23 28 13 340 316 287